Regional Weather Roundup
Issued by NWS Mt. Holly, NJ

Home | Current Version | Previous Version | Text Only | Print | Product List | Glossary On
Versions: 1 2 3 4 5 6 7 8 9 10 11 12 13 14 15 16 17 18 19 20 21 22 23 24 25 26 27 28 29 30 31 32 33 34 35 36 37 38 39 40 41 42 43 44 45 46 47 48 49 50
000
ASUS41 KPHI 281112
RWRPHI

REGIONAL WEATHER ROUNDUP
NATIONAL WEATHER SERVICE MOUNT HOLLY NJ
700 AM EDT SAT MAY 28 2016

NOTE:  "FAIR" INDICATES FEW OR NO CLOUDS BELOW 12,000 FEET WITH NO
SIGNIFICANT WEATHER AND/OR OBSTRUCTIONS TO VISIBILITY.

 * = STATION DOES NOT REPORT PRECIPITATION (E.G. RAIN, SNOW, ETC.)
        OR FOG.

NJZ015>026-281200-
SOUTHERN NEW JERSEY

CITY           SKY/WX    TMP DP  RH WIND       PRES   REMARKS
POMONA         MOSUNNY   67  61  81 S5        30.16R
WILDWOOD*      SUNNY    N/A N/A N/A S5        30.18R
MILLVILLE      SUNNY     69  62  78 CALM      30.16R
WRIGHTSTOWN    SUNNY     68  61  79 SW8       30.13R
MOUNT HOLLY    SUNNY     68  61  78 S3        30.14R
TRENTON        MOSUNNY   69  60  73 SW6       30.14R

$$
NJZ001>014-281200-
NORTHERN NEW JERSEY

CITY           SKY/WX    TMP DP  RH WIND       PRES   REMARKS
SUSSEX         MOSUNNY   70  67  90 SW5       30.12S FOG
ANDOVER*         N/A     70  67  90 CALM      30.13R
MORRISTOWN     MOSUNNY   70  64  83 CALM      30.12R
NEWARK         PTSUNNY   73  59  61 SW8       30.12R
TETERBORO      SUNNY     72  59  63 SW7       30.10R
CALDWELL       SUNNY     71  62  73 SW5       30.12R
SOMERVILLE     CLOUDY    68  65  90 CALM      30.11R
ALLAIRE*       SUNNY     67  60  78 SW6       30.15R
TOMS RIVER*    MOSUNNY   70  57  64 SW8       30.15S

$$
PAZ043-044-047-054-055-060>062-066>071-281200-
EASTERN PENNSYLVANIA

CITY           SKY/WX    TMP DP  RH WIND       PRES   REMARKS
PHILADELPHIA   PTSUNNY   69  60  73 S6        30.15R
NORTH PHILA    MOSUNNY   72  61  68 SW3       30.16R
BLUE BELL*     MOSUNNY   70  63  78 SW3       30.14R
DOYLESTOWN     PTSUNNY   68  62  81 S3        30.14R
QUAKERTOWN*    PTSUNNY   70  64  83 SW3       30.15R
PERKASIE*      FAIR      68  64  88 SW5       30.15S
POTTSTOWN      CLOUDY    70  63  78 S3        30.15R
LANCASTER      MOSUNNY   67  64  90 CALM      30.14R FOG
COATESVILLE    CLOUDY    68  63  83 CALM      30.16S
READING        MOSUNNY   71  64  78 S3        30.12R
ALLENTOWN      CLOUDY    70  65  84 SW3       30.13R
MOUNT POCONO   SUNNY     66  61  84 CALM      30.17R
HAZLETON       SUNNY     64  63  94 CALM      30.19R
LEHIGHTON      FOG       63  63 100 CALM      30.15R VSB 1/4
WILKES BARRE   MOSUNNY   69  65  86 CALM      30.13R

$$
DEZALL-MDZ008-012-015-019-020-281200-
DELAWARE AND EASTERN MARYLAND

CITY           SKY/WX    TMP DP  RH WIND       PRES   REMARKS
WILMINGTON     SUNNY     69  63  81 CALM      30.15R
DOVER          SUNNY     69  68  94 S9        30.14R
GEORGETOWN     SUNNY     68  63  84 SW7       30.17R
EASTON         SUNNY     72  66  83 S5        30.18S
PATUXENT       SUNNY     69  59  70 VRB5      30.14S
OCEAN CITY     SUNNY     69  64  84 VRB3      30.17R
WALLOPS ISLAND FAIR      67  65  93 S6        30.18R
CAMBRIDGE      SUNNY     68  63  83 CALM      30.15S
SALISBURY      SUNNY     67  64  90 CALM      30.17R

$$
PAZ001-021-NYZ056-072-MDZ011-DCZ001-281200-
OTHER NEARBY LOCATIONS

CITY           SKY/WX    TMP DP  RH WIND       PRES   REMARKS
HARRISBURG     MOSUNNY   71  67  87 SE3       30.12R
STATE COLLEGE  SUNNY     64  63  94 CALM      30.15R
WILLIAMSPORT   CLOUDY    66  64  93 CALM      30.12S FOG
BINGHAMTON     SUNNY     66  64  93 CALM      30.14R
NEW YORK CITY  MOSUNNY   72  58  61 W8G17     30.14R
BALTIMORE      MOSUNNY   69  63  81 CALM      30.13R
WASHINGTON DC  FAIR      71  63  75 S9        30.14R

$$



USA.gov is the U.S. government's official web portal to all federal, state and local government web resources and services.